Location: Key Biscayne
(25.6930°N, 80.1630°W)
Time: 03:10:02
(UTC-05:00)

CZ-2D R/B - Visible Passes

Search period start: 14 February 2016 00:00
Search period end: 24 February 2016 00:00
Orbit: 528 x 543 km, 97.6° (Epoch: 14 February)

Date Brightness Start Highest point End Pass type
(mag) Time Alt. Az. Time Alt. Az. Time Alt. Az.
19 Feb 5.9 19:51:10 10° N 19:51:10 10° N 19:51:14 10° N visible
20 Feb 5.7 19:42:05 11° NNE 19:42:05 11° NNE 19:42:18 10° N visible
21 Feb 5.6 19:32:59 11° NNE 19:32:59 11° NNE 19:33:15 10° NNE visible
22 Feb 5.6 19:23:53 11° NNE 19:23:53 11° NNE 19:24:07 10° NNE visible
23 Feb 5.6 19:14:48 10° NE 19:14:48 10° NE 19:14:48 10° NE visible
